{"data":{"norad_id":65774,"epoch":"2026-09-20T03:36:18.825696Z","epoch_age_seconds":176970,"freshness":"STALE","line1":"1 65774U 25217N   26263.15021789 -.00001802  00000+0 -20748-3 0  9994","line2":"2 65774  51.9010 218.2508 0000915  62.2279 297.8777 14.79925504 54301","mean_motion":14.79925504,"eccentricity":9.15e-5,"inclination_deg":51.901,"raan_deg":218.2508,"arg_perigee_deg":62.2279,"mean_anomaly_deg":297.8777,"bstar":-0.00020748,"rev_number":5430,"period_min":97.302195016432,"perigee_km":628.91808807862,"apogee_km":630.2004965001,"semimajor_km":7007.6962922894,"source":"CELESTRAK","updated_at":"2026-09-21T09:00:15.559977Z"}}